Regional Weather Roundup
Issued by NWS Northern Indiana

Home | Current Version | Previous Version | Graphics & Text | Print | Product List | Glossary On
Versions: 1 2 3 4 5 6 7 8 9 10 11 12 13 14 15 16 17 18 19 20 21 22 23 24 25 26 27 28 29 30 31 32 33 34 35 36 37 38 39 40 41 42 43 44 45 46 47 48 49 50
000
ASUS43 KIWX 270700
RWRIWX

KIWX WEATHER ROUNDUP
NATIONAL WEATHER SERVICE NORTHERN INDIANA
300 AM EDT SAT MAY 27 2017

NOTE: "FAIR" INDICATES FEW OR NO CLOUDS BELOW 12,000 FEET WITH NO
SIGNIFICANT WEATHER AND/OR OBSTRUCTIONS TO VISIBILITY.

* THESE STATIONS ARE NOT UNDER NWS QUALITY CONTROL. THEY ALSO MAY NOT
  REPORT WEATHER SUCH AS PRECIPITATION OR FOG.

INZ001>027-270800-
NORTHERN INDIANA

CITY           SKY/WX    TMP DP  RH WIND       PRES   REMARKS
MICHIGAN CITY* CLOUDY    57  57 100 N3        29.85S
SOUTH BEND     CLOUDY    57  56  96 E8        29.85S
GOSHEN         CLOUDY    58  54  86 E5        29.84S
MONTICELLO*    CLOUDY    64  62  95 CALM      29.81R FOG
ANGOLA*        CLOUDY    57  57 100 E6        29.84F
FORT WAYNE     LGT RAIN  61  59  93 E9        29.83S
PERU/GRISSOM   CLOUDY    65  65 100 E3        29.80S

$$
INZ028>050-270800-
CENTRAL INDIANA

CITY           SKY/WX    TMP DP  RH WIND       PRES   REMARKS
LAFAYETTE      MOCLDY    65  65 100 W5        29.80S
KOKOMO*        CLOUDY    65  64  97 SE3       29.82S
MUNCIE*        MOCLDY    66  63  90 CALM      29.82S
INDIANAPOLIS   MOCLDY    67  64  90 W5        29.81F

$$
MIZ043>046-050>051-056>058-064>065-071>073-077>080-270800-
SOUTHWEST LOWER MICHIGAN

CITY           SKY/WX    TMP DP  RH WIND       PRES   REMARKS
BATTLE CREEK   CLOUDY    61  58  90 CALM      29.87S
BENTON HARBOR  LGT RAIN  58  56  93 CALM      29.86R FOG
COLDWATER*     DRIZZLE   59  59 100 E3        29.85F
HILLSDALE*     CLOUDY    59  55  88 CALM      29.86S
HOLLAND        CLEAR     55  53  93 CALM      29.87F
GRAND RAPIDS   CLOUDY    59  58  96 N5        29.88R
KALAMAZOO      CLOUDY    61  57  87 CALM      29.86S
STURGIS*       DRIZZLE   57  56  97 NE6       29.84F
THREE RIVERS*  HVY RAIN  57  55  95 CALM      29.86S

$$
OHZ001>008-015>018-024>025-270800-
NORTHWEST OHIO

CITY           SKY/WX    TMP DP  RH WIND       PRES   REMARKS
DEFIANCE       CLOUDY    59  58  96 E8        29.84F
FINDLAY        RAIN      62  58  86 E5        29.84F FOG
TOLEDO EXPRESS LGT RAIN  59  59 100 CALM      29.86S FOG
TOLEDO METCALF CLOUDY    60  59  96 SE5       29.87F FOG
LIMA           LGT RAIN  61  61 100 E8        29.84F

$$
AND FOR LAKE MICHIGAN COASTAL AND OPEN LAKE BUOY OBSERVATIONS

STATION/POSITION TEMP    WIND        PRES    VSBY  WAVE
                 AIR SEA DIR/SP/G                  HT/PER
                 (F)     (DEG/KT/KT) (MB)    (MI)  (FT/S)
CALUMET HARBOR    54     350/  5/  8 1010.7R
MICHIGAN CITY     55      20/ 11/ 12   N/A
BURNS HARBOR      55      50/  6/  8 1011.2S
SOUTH LAKE BUOY   48 46  360/  8/ 10 1012.1          0
4 MI NW BRIDGMAN  57 57   60/  6/  8 1011.4R         1
MICHIGAN CITY     54 53   40/  8/ 10   N/A           1/ 3

$$
&&



USA.gov is the U.S. government's official web portal to all federal, state and local government web resources and services.